Probability
12 14 16 16 14 11 9 9 7 4 2 2 3 5 7 7 5 4 5 4 1 0 0 0 0 0 0 0 0 0 0 0 1 2 3 3 4 5
15 16 17 17 16 14 12 13 11 8 5 3 4 5 5 5 4 4 6 5 2 1 0 0 0 0 0 0 0 0 0 0 0 1 2 3 3 4
17 18 19 19 18 18 18 17 15 13 9 6 5 6 5 5 5 6 5 6 4 1 0 0 0 0 0 0 0 0 0 0 0 0 1 1 3 3
19 21 21 20 21 23 23 19 17 16 13 9 7 8 8 7 8 8 6 5 4 2 0 0 0 0 0 0 0 0 0 0 0 0 0 1 2 3
25 26 26 24 24 26 26 23 21 19 17 13 9 10 11 10 10 8 7 7 5 3 1 0 0 0 0 0 0 0 0 0 0 0 0 0 1 2
31 32 32 28 25 26 27 26 25 23 20 15 10 10 12 12 11 10 9 9 9 5 2 1 0 0 0 0 0 0 0 0 0 0 0 0 0 1
30 32 32 28 22 20 21 22 24 24 23 17 13 13 14 13 12 11 11 10 9 7 5 4 2 1 1 0 0 0 0 0 0 0 0 0 0 0
25 26 27 25 19 15 12 12 15 19 21 20 19 18 17 14 12 12 11 10 8 6 6 5 3 2 1 0 0 0 0 0 0 0 0 0 0 0
21 22 22 23 22 18 13 9 9 11 14 18 21 21 20 18 15 13 11 10 8 5 4 4 3 2 1 0 0 0 0 0 0 0 0 0 0 0
19 19 19 20 22 22 20 16 14 12 10 11 15 17 17 17 17 13 10 9 7 5 4 3 2 1 0 0 0 0 0 0 0 0 0 0 0 0
18 16 15 15 16 18 20 21 20 17 11 6 7 9 10 10 11 10 8 6 5 4 3 1 1 0 0 0 0 0 0 0 0 0 0 0 0 0
18 15 11 10 9 11 15 19 20 20 15 9 6 6 7 6 6 7 6 5 4 3 2 1 0 0 0 1 1 0 0 0 0 0 0 0 0 0
18 15 11 7 4 4 9 13 15 16 16 14 11 9 8 8 8 7 7 7 5 3 2 1 1 0 0 1 2 1 0 0 0 0 0 0 0 0
16 15 12 6 2 1 3 6 7 10 14 15 13 11 10 10 11 10 9 8 7 5 3 2 1 1 0 1 2 1 1 1 1 1 1 1 0 0
14 12 9 5 2 1 1 2 3 7 12 13 12 11 10 10 11 12 11 9 7 6 4 3 3 2 1 1 1 2 2 2 2 2 2 2 1 1
10 8 6 4 3 3 2 2 3 6 9 10 9 9 9 9 9 11 12 10 7 5 4 4 4 4 3 2 1 1 3 3 3 3 3 3 3 2
7 7 7 7 7 6 5 4 4 5 6 6 6 7 8 7 7 9 11 10 7 4 4 4 5 4 3 2 1 1 3 3 3 3 3 3 3 3
6 9 11 10 9 9 8 6 5 5 5 5 6 7 7 7 7 7 9 8 6 4 3 4 4 4 3 2 1 2 3 3 3 3 3 3 3 3
4 7 10 10 9 9 9 8 8 7 7 6 6 6 6 7 7 7 6 5 5 4 3 4 4 4 3 3 2 2 2 3 3 3 3 3 3 3
2 5 7 8 8 7 8 8 9 9 9 8 6 5 5 5 7 7 5 4 4 4 4 3 4 4 4 4 3 2 2 2 3 3 3 3 2 1
3 3 4 6 7 6 7 8 9 9 9 9 8 7 5 4 5 5 4 4 4 4 3 3 4 5 5 5 4 3 2 2 2 2 2 1 1 0
4 3 3 6 7 7 8 9 9 9 9 9 9 8 6 4 4 4 3 3 3 3 3 4 5 5 5 4 3 3 2 1 1 1 1 0 0 0
4 3 4 6 7 8 9 9 9 9 9 9 9 7 5 4 4 3 3 3 3 3 3 4 5 5 5 4 3 3 2 1 1 1 0 0 0 0
Wind_Speed
6 6 5 4 4 4 4 4 4 4 3 3 3 2 2 1 2 2 2 3 3 2 2 1 2 1 1 1 1 1 1 1 1 1 2 2 2 2
4 5 5 5 4 4 4 4 5 5 4 1 2 2 2 2 3 3 2 5 4 3 3 3 2 2 2 2 2 2 2 2 1 1 1 1 1 1
6 6 6 5 4 4 4 4 4 4 5 3 2 2 3 3 2 3 3 3 3 4 3 3 3 3 3 3 2 2 2 2 2 2 2 1 1 0
7 7 7 5 6 5 4 5 4 4 5 5 3 3 4 4 3 4 3 2 2 5 5 4 3 3 3 3 3 2 2 2 2 2 2 1 1 1
7 7 7 6 6 5 5 5 4 5 5 5 4 3 3 3 4 4 3 2 3 5 7 6 5 5 4 4 3 3 3 3 3 3 2 2 1 1
6 7 7 7 7 6 5 6 5 5 5 5 5 4 4 4 4 4 4 3 3 3 3 4 6 7 6 5 5 4 4 3 3 3 3 2 2 2
6 6 6 5 3 4 4 5 5 5 5 6 5 5 4 3 4 4 4 3 3 3 3 3 4 4 5 7 6 5 5 5 4 3 3 3 3 3
6 5 5 6 5 4 2 2 3 5 6 5 5 5 5 5 4 4 4 4 3 3 4 3 3 3 3 3 5 6 6 6 5 5 4 4 3 3
6 6 5 4 6 6 7 7 6 5 6 7 6 6 5 4 4 5 4 5 4 2 4 4 3 3 3 3 6 7 7 6 6 6 5 5 5 4
6 6 6 6 5 5 6 7 7 7 8 8 6 5 4 3 5 6 5 6 5 4 4 4 3 3 3 3 8 8 7 7 7 6 6 6 5 5
6 5 5 6 3 4 7 7 7 6 6 4 3 3 2 2 3 5 5 6 5 4 4 4 3 3 3 4 6 10 8 7 7 6 6 6 5 6
5 5 5 5 4 5 7 7 8 6 5 5 6 7 7 6 6 6 5 5 4 3 3 3 3 3 3 3 3 5 6 7 8 7 7 6 6 5
4 4 3 6 6 6 7 6 4 4 5 5 5 5 5 5 6 5 4 4 4 3 2 4 3 4 3 2 3 4 4 4 5 6 8 8 7 6
4 4 2 6 5 6 5 3 3 5 5 5 5 5 5 4 4 4 4 4 4 3 2 3 4 4 4 4 3 4 4 4 4 4 5 8 9 9
3 1 3 5 6 6 6 6 7 6 5 5 5 5 4 3 4 4 6 6 5 4 3 4 5 4 5 5 4 4 4 4 5 5 4 5 5 6
3 3 5 6 6 4 5 6 6 4 4 5 4 3 3 4 4 4 4 5 5 5 5 5 5 5 5 5 5 4 4 4 4 4 4 4 5 5
2 3 4 4 4 4 4 4 4 4 5 5 5 4 4 4 4 4 4 4 5 4 4 4 5 5 5 5 5 5 4 4 4 3 5 5 5 5
4 4 4 4 4 4 4 4 3 3 3 4 4 4 4 4 4 4 4 4 4 4 4 4 4 4 5 5 4 5 4 4 3 4 6 6 6 5
4 3 3 3 3 3 3 3 3 3 3 3 4 3 4 4 4 4 4 4 4 4 3 3 3 4 5 5 5 5 5 4 4 4 5 6 6 5
4 3 3 3 3 3 3 3 3 3 3 3 3 3 3 4 4 4 4 5 5 4 4 4 4 4 5 5 4 4 7 5 4 5 5 5 5 3
3 3 3 3 3 3 2 3 3 3 3 3 3 3 3 4 4 4 4 4 5 5 5 4 3 5 5 5 5 4 4 7 5 5 5 5 5 5
3 3 2 2 2 2 2 3 3 3 4 4 3 3 4 4 4 5 4 4 5 5 5 4 4 5 5 6 6 5 4 5 7 7 7 5 5 5
2 2 2 2 2 2 2 3 3 3 3 3 3 3 3 4 4 4 4 5 4 4 4 4 3 4 5 6 6 5 5 5 5 6 6 8 8 8
Wind_Direction
221 215 225 225 232 236 237 240 249 251 227 196 212 181 198 196 156 211 197 140 165 168 172 161 161 163 158 150 149 161 173 186 234 247 246 245 243 260
226 229 228 226 226 229 235 235 242 260 268 209 207 195 217 224 170 220 201 151 161 173 177 173 171 172 165 159 155 153 153 158 167 168 167 195 233 271
221 218 222 231 229 225 230 233 234 234 245 246 215 189 207 241 203 223 215 208 163 164 178 179 180 180 176 168 161 162 163 166 164 161 150 136 138 74
223 222 222 217 219 231 230 228 228 228 235 242 231 206 213 221 217 229 228 213 193 151 168 180 188 189 184 177 170 173 182 184 175 172 163 156 157 140
228 224 224 222 223 220 223 223 222 221 225 235 239 224 221 207 210 217 223 234 225 167 173 179 188 192 192 188 184 182 184 185 184 182 176 171 170 170
234 230 226 223 223 221 220 223 225 226 221 231 235 225 216 203 217 219 215 214 231 207 180 186 182 187 189 187 188 184 184 182 181 181 180 178 175 180
233 230 227 219 227 234 235 220 220 228 226 227 233 231 219 208 222 227 231 221 221 228 216 201 192 196 188 187 190 190 189 186 182 179 180 186 193 194
234 229 214 201 192 193 220 254 257 240 242 240 238 238 233 226 230 238 235 233 228 205 231 224 213 213 205 195 169 178 191 192 191 191 188 186 191 191
234 234 232 208 206 209 201 208 221 237 252 259 254 251 241 230 238 237 233 246 253 209 226 229 213 222 215 174 157 176 192 198 201 203 205 202 198 201
229 228 230 225 214 216 219 220 223 221 226 234 245 251 251 244 230 239 241 235 232 207 216 236 215 225 219 189 164 175 185 195 204 208 208 209 209 209
228 226 226 225 199 220 226 227 229 226 211 214 245 261 283 257 256 247 232 234 231 204 206 242 230 231 224 211 175 173 181 189 193 200 206 210 212 214
218 218 218 223 192 207 228 230 231 229 221 203 210 218 223 209 211 233 243 245 241 219 181 227 227 225 228 209 193 183 191 187 191 198 201 206 212 229
223 224 201 170 190 205 233 236 235 240 229 226 219 216 214 212 212 217 238 255 260 249 181 212 233 225 238 228 211 208 212 206 202 203 202 199 205 230
235 232 172 157 183 204 220 220 217 234 230 225 226 222 218 215 210 212 222 238 258 268 243 226 243 233 242 244 223 206 212 217 220 219 212 191 206 218
236 172 154 169 188 201 202 209 218 228 229 229 231 228 230 222 215 206 207 215 224 234 222 231 246 237 245 250 245 226 219 218 221 223 219 212 215 214
214 165 168 190 214 213 197 209 225 234 236 236 241 232 223 213 218 221 218 210 217 209 204 219 234 239 242 245 249 239 228 222 216 224 232 233 227 224
205 212 207 197 205 210 214 216 223 219 226 232 230 226 225 225 222 220 227 225 226 223 204 201 210 221 242 256 252 248 242 240 231 217 231 239 232 226
206 217 214 211 216 219 222 219 223 233 238 241 237 229 226 227 222 220 225 229 228 228 220 206 208 214 224 225 243 253 251 249 245 226 237 245 243 231
211 224 225 223 225 226 228 230 225 223 232 237 238 237 237 231 223 219 220 227 231 233 226 220 224 233 241 240 208 215 247 255 252 238 239 248 251 243
221 224 232 235 232 234 232 234 234 222 223 233 234 239 240 237 232 231 228 232 230 229 227 220 226 237 247 262 261 215 210 238 249 251 253 254 253 238
218 222 231 238 237 233 240 239 238 230 225 228 226 235 237 232 231 234 230 222 240 237 235 229 219 229 246 251 250 236 210 206 240 261 263 262 260 251
219 223 232 248 253 241 239 243 240 234 223 221 225 226 230 233 229 232 239 233 231 239 246 242 205 213 231 240 247 248 238 211 211 227 243 254 270 270
232 234 233 230 240 239 242 246 250 244 232 225 226 231 232 231 231 227 228 240 241 241 246 246 238 229 233 239 246 251 247 238 230 222 223 212 224 242